Hourly Data Report for May 06, 2012

All times are specified in Local Standard Time (LST). Add 1 hour to adjust for Daylight Saving Time where and when it is observed.

SAULT STE MARIE A
ONTARIO

46°29'06.000" N
84°30'35.000" W
192.00 m
6057591
71260
YAM

Download Data

Hourly Data (May 2012)
Hourly Data Report for May 6, 2012
Temp Definition
°C
Dew Point Temp Definition
°C
Rel Hum Definition
%
Wind Dir Definition
10's deg

Wind Spd Definition
km/h
Visibility Definition
km
Stn Press Definition
kPa
Hmdx Definition


Wind Chill Definition


Weather Definition


TIME
00:00 5.8 -2.3 56 4 5 10.0 99.81     LegendNANA
01:00 3.8 -1.8 67 12 4 10.0 99.74     Mainly Clear
02:00 1.5 -1.8 79 7 4 10.0 99.74     LegendNANA
03:00 0.9 -2.2 80   0 10.0 99.74     LegendNANA
04:00 0.4 -2.2 83 3 4 10.0 99.84     Mainly Clear
05:00 -0.8 -2.4 89   0 10.0 99.88     LegendNANA
06:00 0.0 -0.9 94   0 10.0 99.93     LegendNANA
07:00 7.0 1.7 69 7 7 10.0 99.93     Mostly Cloudy
08:00 10.0 0.1 50 6 5 10.0 99.97     LegendNANA
09:00 13.0 -0.9 38 9 9 10.0 99.92     LegendNANA
10:00 14.5 -1.5 33 5 14 10.0 99.88     Cloudy
11:00 16.9 -3.7 24 15 17 10.0 99.82     LegendNANA
12:00 17.3 -7.2 18 11 19 10.0 99.81     LegendNANA
13:00 17.4 -6.4 19 11 18 10.0 99.77     Cloudy
14:00 17.5 -6.3 19 13 12 10.0 99.75     LegendNANA
15:00 16.8 -5.6 21 19 15 10.0 99.76     LegendNANA
16:00 16.9 -5.5 21 17 10 10.0 99.73     Cloudy
17:00 15.7 -1.7 30 15 15 10.0 99.72     LegendNANA
18:00 14.1 -0.7 36 16 10 10.0 99.72     LegendNANA
19:00 13.0 -0.2 40 13 7 10.0 99.68     Mostly Cloudy
20:00 11.9 0.4 45 9 5 10.0 99.60     LegendNANA
21:00 10.7 0.5 49   0 10.0 99.61     LegendNANA
22:00 8.8 1.3 59 17 4 10.0 99.62     Mostly Cloudy
23:00 8.7 1.6 61   0 10.0 99.68     LegendNANA

Notes on Data Quality.

Legend

  • E = Estimated
  • M = Missing
  • NA = Not Available
Date modified: